Tracking 28052 objects as of 25-Sep-2023
HD Live streaming from Space Station
objects crossing your sky now

PSLV DEB

Track PSLV DEB now!
10-day predictions


NORAD ID: 35339
Int'l Code: 2001-049PX
Perigee: 637.8 km
Apogee: 883.8 km
Inclination: 98.3 °
Period: 99.9 minutes
Semi major axis: 7131 km
RCS: 0.0072 m2 (small)
Launch date: October 22, 2001
Source: India (IND)
Launch site: SRIHARIKOTA (SRI)

Note: This is SATELLITE DEBRIS
Your satellite tracking list
Your tracking list is empty




NASA's NSSDC Master Catalog

Two Line Element Set (TLE):
1 35339U 01049PX  23267.81332431  .00003526  00000-0  92259-3 0  9998
2 35339  98.2908  33.3638 0172472 299.8137  58.6001 14.41466782 94218
Source of the keplerian elements: AFSPC